Location: *
(49.3500°N, 12.6000°E)
Time: 08:50:15
(UTC+00:00)

Cosmos 2173 Rocket - Pass Details

Date: 18 October 2019
Orbit: 944 x 1001 km, 83.0° (Epoch: 19 November)

Event Time Altitude Azimuth Distance (km) Brightness Sun altitude
Rises 17:49:43 0° 353° (N) 3,708 7.2 -16.3°
Reaches altitude 10° 17:52:24 10° 360° (N) 2,748 6.4 -16.7°
Maximum altitude 17:58:26 46° 73° (ENE) 1,278 4.2 -17.7°
Enters shadow 18:02:40 19° 139° (SE) 2,125 5.4 -18.4°
